IV3ONZ Fogliano Redipuglia IT current weather conditions

sailwx.info

Air temperature 18.3° C
Dewpoint 13.6° C

Last reported at 2019-May-25 19:10 UTC.
Time now 2019-May-25 19:50 UTC

Location: N 45°51' E 013°29'.
View on Google Maps.

See reports from other nearby stations

  
Tides and Currents Weather Stations Pressure Air Temp Water Temp Dewpoint Dewpoint Depression Visibility Wind Speed Wind Dir Waves Ship Positions
date/time (UTC)wind fromknots sea level pressurealtimeterstation pressurevisibilityair tempwater tempwave heightnotes
2019-May-25 19:10 18.3
2019-May-25 19:05 060 0 gusting 3 18.3
2019-May-25 19:00 061 0 gusting 4 18.3
2019-May-25 18:55 049 1 gusting 4 18.9
2019-May-25 18:50 050 1 gusting 3 18.9
2019-May-25 18:45 075 1 gusting 2 19.4
2019-May-25 18:40 222 0 gusting 2 20.0
2019-May-25 18:35 261 0 gusting 2 20.0
2019-May-25 18:30 233 1 gusting 2 20.0
2019-May-25 18:25 20.0
2019-May-25 18:20 169 0 gusting 4 20.0
2019-May-25 18:15 197 2 gusting 6 20.6
2019-May-25 18:10 220 2 gusting 6 20.6
2019-May-25 18:05 219 3 gusting 6 20.6
2019-May-25 18:00 205 3 gusting 6 20.6
2019-May-25 17:55 197 3 gusting 6 20.6
2019-May-25 17:50 205 3 gusting 6 20.6
2019-May-25 17:45 202 3 gusting 6 20.6
2019-May-25 17:40 195 3 gusting 6 20.6
2019-May-25 17:35 202 2 gusting 6 20.6
2019-May-25 17:30 208 6 gusting 7 21.1
2019-May-25 17:25 209 4 gusting 7 21.1
2019-May-25 17:20 205 3 gusting 6 21.1
2019-May-25 17:15 200 4 gusting 7 21.1
2019-May-25 17:10 200 5 gusting 7 21.7
2019-May-25 17:05 203 4 gusting 7 21.7
2019-May-25 17:00 189 5 gusting 8 21.7
2019-May-25 16:55 171 6 gusting 8 22.8
2019-May-25 16:50 172 4 gusting 7 23.3
2019-May-25 16:45 180 4 gusting 8 23.3
2019-May-25 16:40 196 5 gusting 8 23.3
2019-May-25 16:35 197 3 gusting 9 23.3
2019-May-25 16:30 192 6 gusting 10 23.3
2019-May-25 16:25 198 6 gusting 10 23.3
2019-May-25 16:20 204 5 gusting 9 23.3
2019-May-25 16:15 210 6 gusting 9 23.3
2019-May-25 16:10 192 4 gusting 9 23.3
2019-May-25 16:05 188 7 gusting 9 23.9
2019-May-25 16:00 193 7 gusting 10 23.9
2019-May-25 15:55 196 6 gusting 10 23.9
2019-May-25 15:50 205 7 gusting 12 23.9
2019-May-25 15:45 215 6 gusting 12 24.4
2019-May-25 15:40 205 4 gusting 10 24.4
2019-May-25 15:35 191 9 gusting 12 23.9
2019-May-25 15:30 193 8 gusting 12 24.4
2019-May-25 15:25 190 7 gusting 12 24.4
2019-May-25 15:20 206 6 gusting 12 24.4
2019-May-25 15:15 213 6 gusting 12 24.4
2019-May-25 15:05 225 10 gusting 12 24.4
2019-May-25 15:00 206 6 gusting 12 24.4
2019-May-25 14:55 210 6 gusting 12 24.4
2019-May-25 14:50 206 7 gusting 13 24.4
2019-May-25 14:45 194 6 gusting 13 24.4
2019-May-25 14:40 205 8 gusting 13 25.6
2019-May-25 14:35 204 7 gusting 10 25.6
2019-May-25 14:30 190 5 gusting 10 25.6
2019-May-25 14:25 202 7 gusting 10 25.6
2019-May-25 14:20 207 7 gusting 13 25.6
2019-May-25 14:15 197 7 gusting 13 24.4
2019-May-25 14:10 188 8 gusting 12 25.6
2019-May-25 14:05 197 6 gusting 12 25.6
2019-May-25 14:00 211 6 gusting 12 25.6
2019-May-25 13:55 230 8 gusting 12 25.6
2019-May-25 13:50 251 5 gusting 10 25.6
2019-May-25 13:45 221 2 gusting 12 25.6
2019-May-25 13:40 219 5 gusting 12 25.6
2019-May-25 13:35 261 8 gusting 12 25.6
2019-May-25 13:30 281 5 gusting 12 25.6
2019-May-25 13:25 271 7 gusting 12 25.6
2019-May-25 13:20 277 3 gusting 10 26.1
2019-May-25 13:15 285 5 gusting 12 26.1
2019-May-25 13:10 279 2 gusting 12 25.6
2019-May-25 13:05 280 5 gusting 10 26.1
2019-May-25 13:00 266 4 gusting 12 25.6
2019-May-25 12:55 248 5 gusting 12 25.6
2019-May-25 12:50 254 4 gusting 8 26.1
2019-May-25 12:45 254 4 gusting 10 26.1
2019-May-25 12:40 280 6 gusting 10 25.6
2019-May-25 12:35 273 4 gusting 9 25.6
2019-May-25 12:30 238 6 gusting 12 25.6
2019-May-25 12:25 229 4 gusting 12 25.6
2019-May-25 12:20 227 5 gusting 12 25.6
2019-May-25 12:15 277 6 gusting 13 25.6
2019-May-25 12:10 329 6 gusting 13 26.1
2019-May-25 12:05 314 6 gusting 13 25.6
2019-May-25 12:00 229 6 gusting 13 25.6
2019-May-25 11:55 211 3 gusting 7 25.6
2019-May-25 11:50 266 2 gusting 10 25.6
2019-May-25 11:45 264 4 gusting 10 25.6
2019-May-25 11:40 243 6 gusting 9 25.6
2019-May-25 11:35 241 6 gusting 9 25.6
2019-May-25 11:30 265 5 gusting 8 25.6
2019-May-25 11:25 301 3 gusting 10 25.6
2019-May-25 11:20 286 6 gusting 10 25.6
2019-May-25 11:15 258 1 gusting 7 25.6
2019-May-25 11:10 282 2 gusting 8 25.6
2019-May-25 11:05 260 4 gusting 8 25.6
2019-May-25 11:00 258 6 gusting 8 25.6
2019-May-25 10:55 285 0 gusting 10 24.4
2019-May-25 10:50 289 4 gusting 10 24.4
2019-May-25 10:45 278 8 gusting 10 25.6
2019-May-25 10:40 257 4 gusting 8 24.4
2019-May-25 10:35 240 4 gusting 8 24.4
2019-May-25 10:30 227 2 gusting 8 24.4
2019-May-25 10:25 262 4 gusting 8 24.4
2019-May-25 10:20 288 6 gusting 8 24.4
2019-May-25 10:15 255 1 gusting 6 24.4
2019-May-25 10:10 235 4 gusting 6 24.4
2019-May-25 10:05 233 2 gusting 6 25.6
2019-May-25 10:00 275 2 gusting 6 25.6
2019-May-25 09:55 278 1 gusting 5 24.4
2019-May-25 09:50 278 3 gusting 6 24.4
2019-May-25 09:45 268 1 gusting 6 24.4
2019-May-25 09:40 260 4 gusting 6 24.4
2019-May-25 09:35 24.4
2019-May-25 09:30 286 1 gusting 6 24.4
2019-May-25 09:25 279 2 gusting 6 24.4
2019-May-25 09:20 296 5 gusting 6 24.4
2019-May-25 09:15 279 2 gusting 6 24.4
2019-May-25 09:10 260 5 gusting 6 24.4
2019-May-25 09:05 271 3 gusting 5 24.4
2019-May-25 09:00 266 2 gusting 6 24.4
2019-May-25 08:55 218 3 gusting 6 24.4
2019-May-25 08:50 181 1 gusting 4 25.6
2019-May-25 08:45 202 1 gusting 3 24.4
2019-May-25 08:40 236 0 gusting 3 24.4
2019-May-25 08:35 231 0 gusting 3 24.4
2019-May-25 08:30 209 0 gusting 1 24.4
2019-May-25 08:25 24.4
2019-May-25 08:20 23.3
2019-May-25 08:15 22.2
2019-May-25 08:10 140 1 gusting 3 22.2
2019-May-25 08:05 145 2 gusting 3 21.7
2019-May-25 08:00 159 2 gusting 3 21.7
2019-May-25 07:55 144 1 gusting 3 21.7
2019-May-25 07:50 21.7
2019-May-25 07:45 127 0 gusting 4 21.1
2019-May-25 07:40 151 0 gusting 4 21.1
2019-May-25 07:35 162 1 gusting 4 21.7
2019-May-25 07:30 182 0 gusting 1 21.1
2019-May-25 07:25 21.1
2019-May-25 07:20 228 0 gusting 2 21.1
2019-May-25 07:15 199 1 gusting 3 21.1
2019-May-25 07:10 189 0 gusting 3 21.1
2019-May-25 07:05 186 1 gusting 3 21.1
2019-May-25 07:00 197 0 gusting 3 21.1
2019-May-25 06:55 21.1
2019-May-25 06:50 230 0 gusting 3 20.6
2019-May-25 06:45 235 1 gusting 3 21.1
2019-May-25 06:40 240 0 gusting 2 21.1
2019-May-25 06:35 20.6
2019-May-25 06:30 247 1 gusting 3 20.6
2019-May-25 06:25 248 0 gusting 2 21.1
2019-May-25 06:20 206 0 gusting 2 21.1
2019-May-25 06:15 205 0 gusting 2 21.1
2019-May-25 06:10 225 0 gusting 1 21.1
2019-May-25 06:05 229 0 gusting 2 20.0
2019-May-25 06:00 230 0 gusting 2 20.0
2019-May-25 05:55 225 0 gusting 2 20.0
2019-May-25 05:50 19.4
2019-May-25 05:45 18.9
2019-May-25 05:40 18.9
2019-May-25 05:35 230 0 gusting 2 18.9
2019-May-25 05:30 223 1 gusting 2 18.3
2019-May-25 05:25 18.3
2019-May-25 05:20 18.3
2019-May-25 05:15 196 0 gusting 4 17.8
2019-May-25 05:10 17.8
2019-May-25 05:05 190 1 gusting 3 17.8
2019-May-25 05:00 17.2
2019-May-25 04:55 16.7
2019-May-25 04:50 16.1
2019-May-25 04:45 16.1
2019-May-25 04:40 16.1
2019-May-25 04:35 15.6
2019-May-25 04:30 15.0
2019-May-25 04:25 068 2 gusting 4 14.4
2019-May-25 04:20 13.9
2019-May-25 04:15 071 0 gusting 3 13.3
2019-May-25 04:10 122 1 gusting 2 13.3
2019-May-25 04:05 135 0 gusting 1 13.3
2019-May-25 04:00 135 0 gusting 1 13.3
2019-May-25 03:55 13.3
2019-May-25 03:50 13.3
2019-May-25 03:45 13.3
2019-May-25 03:40 13.3
2019-May-25 03:35 13.3
2019-May-25 03:30 345 0 gusting 1 13.3
2019-May-25 03:25 250 0 gusting 4 13.3
2019-May-25 03:20 13.3
2019-May-25 03:15 218 2 gusting 3 13.3
2019-May-25 03:10 13.3
2019-May-25 03:05 13.3
2019-May-25 03:00 210 1 gusting 2 13.3
2019-May-25 02:55 360 1 gusting 3 13.3
2019-May-25 02:50 13.3
2019-May-25 02:45 346 2 gusting 4 13.3
2019-May-25 02:40 315 2 gusting 4 13.3
2019-May-25 02:35 13.3
2019-May-25 02:30 283 2 gusting 6 13.3
2019-May-25 02:25 243 1 gusting 3 13.9
2019-May-25 02:20 13.9
2019-May-25 02:15 13.9
2019-May-25 02:10 109 2 gusting 6 13.9
2019-May-25 02:05 109 4 gusting 6 13.9
2019-May-25 02:00 098 4 gusting 10 13.9
2019-May-25 01:55 101 5 gusting 10 13.9
2019-May-25 01:50 103 6 gusting 9 13.9
2019-May-25 01:45 101 5 gusting 8 13.9
2019-May-25 01:40 100 6 gusting 8 13.9
2019-May-25 01:35 14.4
2019-May-25 01:30 093 1 gusting 6 14.4
2019-May-25 01:25 100 5 gusting 6 14.4
2019-May-25 01:20 094 4 gusting 6 13.9
2019-May-25 01:15 099 4 gusting 6 13.9
2019-May-25 01:10 070 1 gusting 2 13.3
2019-May-25 01:05 031 0 gusting 2 13.3
2019-May-25 01:00 004 0 gusting 2 13.3
2019-May-25 00:55 13.3
2019-May-25 00:50 13.3
2019-May-25 00:45 13.3
2019-May-25 00:40 131 0 gusting 3 13.3
2019-May-25 00:35 117 1 gusting 3 13.3
2019-May-25 00:30 202 1 gusting 3 13.3
2019-May-25 00:25 13.9
2019-May-25 00:20 321 0 gusting 3 13.9
2019-May-25 00:15 337 1 gusting 2 13.9
2019-May-25 00:10 081 0 gusting 2 13.9
2019-May-25 00:05 13.9
2019-May-25 00:00 13.9
2019-May-24 23:55 056 1 gusting 3 13.9
2019-May-24 23:50 054 1 gusting 4 13.3
2019-May-24 23:45 066 1 gusting 4 13.3
2019-May-24 23:40 056 2 gusting 3 13.9
2019-May-24 23:35 032 2 gusting 4 13.9
2019-May-24 23:30 019 2 gusting 4 13.3
2019-May-24 23:25 023 0 gusting 2 13.9
2019-May-24 23:20 13.9
2019-May-24 23:15 087 0 gusting 2 13.9
2019-May-24 23:10 090 1 gusting 2 13.9
2019-May-24 23:05 090 1 gusting 2 13.9
2019-May-24 23:00 13.9
2019-May-24 22:55 13.9
2019-May-24 22:50 13.9
2019-May-24 22:45 095 1 gusting 3 14.4
2019-May-24 22:40 090 2 gusting 3 14.4
2019-May-24 22:35 088 1 gusting 3 14.4
2019-May-24 22:30 14.4
2019-May-24 22:25 14.4
2019-May-24 22:20 030 0 gusting 2 14.4
2019-May-24 22:15 033 1 gusting 3 14.4
2019-May-24 22:10 045 0 gusting 3 14.4
2019-May-24 22:05 046 1 gusting 3 15.0
2019-May-24 22:00 070 1 gusting 3 15.0
2019-May-24 21:55 15.0
2019-May-24 21:50 042 1 gusting 3 15.0
2019-May-24 21:45 037 0 gusting 3 15.0
2019-May-24 21:40 043 0 gusting 3 15.0
2019-May-24 21:35 065 2 gusting 3 15.0
2019-May-24 21:30 099 0 gusting 3 15.6
2019-May-24 21:25 071 0 gusting 3 15.6
2019-May-24 21:20 040 1 gusting 3 15.6
2019-May-24 21:15 051 2 gusting 3 15.6
2019-May-24 21:10 084 1 gusting 3 15.6
2019-May-24 21:05 085 1 gusting 3 15.6
2019-May-24 21:00 083 1 gusting 2 15.6
2019-May-24 20:55 089 1 gusting 2 16.1
2019-May-24 20:50 090 1 gusting 2 16.1
2019-May-24 20:45 090 1 gusting 2 16.1
2019-May-24 20:40 076 1 gusting 3 16.1
2019-May-24 20:35 069 0 gusting 3 16.1
2019-May-24 20:30 084 1 gusting 4 16.1
2019-May-24 20:25 092 1 gusting 4 16.7
2019-May-24 20:20 092 2 gusting 4 16.7
2019-May-24 20:15 083 1 gusting 4 16.7
2019-May-24 20:10 061 2 gusting 4 16.7
2019-May-24 20:05 045 0 gusting 1 17.2
2019-May-24 20:00 061 0 gusting 2 17.2
2019-May-24 19:55 085 0 gusting 2 17.2
2019-May-24 19:50 095 1 gusting 2 17.2
2019-May-24 19:45 086 0 gusting 3 17.2
2019-May-24 19:40 080 0 gusting 3 17.2
2019-May-24 19:35 065 1 gusting 3 17.2
2019-May-24 19:30 041 2 gusting 3 17.2
2019-May-24 19:25 037 0 gusting 3 17.2
2019-May-24 19:20 047 1 gusting 3 17.8
2019-May-24 19:15 049 1 gusting 2 17.8
2019-May-24 19:10 17.8
2019-May-24 19:05 083 0 gusting 4 17.8
2019-May-24 19:00 088 2 gusting 4 17.8
2019-May-24 18:55 090 2 gusting 3 18.3
2019-May-24 18:50 18.9
2019-May-24 18:45 18.9
2019-May-24 18:40 18.9
2019-May-24 18:35 029 1 gusting 3 19.4
2019-May-24 18:30 057 2 gusting 4 19.4
2019-May-24 18:25 092 1 gusting 5 19.4
2019-May-24 18:20 131 2 gusting 6 20.0
2019-May-24 18:15 131 2 gusting 6 20.0
2019-May-24 18:10 129 4 gusting 6 20.0
2019-May-24 18:05 132 2 gusting 6 20.0
2019-May-24 18:00 125 2 gusting 6 20.0
2019-May-24 17:55 124 3 gusting 6 20.0
2019-May-24 17:50 114 2 gusting 6 20.0
2019-May-24 17:45 103 1 gusting 6 20.0
2019-May-24 17:40 125 3 gusting 6 20.6
2019-May-24 17:35 152 2 gusting 6 20.6
2019-May-24 17:30 154 3 gusting 6 20.6
2019-May-24 17:25 137 4 gusting 5 20.6
2019-May-24 17:20 129 3 gusting 6 20.6
2019-May-24 17:15 151 2 gusting 7 20.6
2019-May-24 17:10 182 4 gusting 8 21.1
2019-May-24 17:05 197 4 gusting 8 21.1
2019-May-24 17:00 195 6 gusting 8 21.1
2019-May-24 16:55 190 6 gusting 8 21.1
2019-May-24 16:50 171 3 gusting 6 21.7
2019-May-24 16:45 170 2 gusting 8 21.7
2019-May-24 16:40 175 4 gusting 8 21.7
2019-May-24 16:35 188 4 gusting 10 21.7
2019-May-24 16:30 194 5 gusting 10 21.7
2019-May-24 16:25 208 5 gusting 9 22.2
2019-May-24 16:20 206 6 gusting 10 23.3
2019-May-24 16:15 183 4 gusting 10 22.8
2019-May-24 16:10 178 6 gusting 10 23.3
2019-May-24 16:05 172 7 gusting 12 23.3
2019-May-24 16:00 155 7 gusting 12 23.3
2019-May-24 15:55 157 9 gusting 12 23.3
2019-May-24 15:50 175 6 gusting 12 23.3
2019-May-24 15:45 176 6 gusting 12 23.3
2019-May-24 15:40 174 7 gusting 13 23.9
2019-May-24 15:35 171 8 gusting 13 23.3
2019-May-24 15:30 165 5 gusting 12 23.3
2019-May-24 15:25 175 8 gusting 12 23.3
2019-May-24 15:20 186 6 gusting 10 22.8
2019-May-24 15:15 193 6 gusting 10 22.8
2019-May-24 15:10 203 3 gusting 13 22.8
2019-May-24 15:05 195 9 gusting 13 23.3
2019-May-24 15:00 189 6 gusting 13 23.3
2019-May-24 14:55 195 8 gusting 13 23.9
2019-May-24 14:50 198 6 gusting 13 24.4
2019-May-24 14:45 185 6 gusting 13 24.4
2019-May-24 14:40 181 8 gusting 13 24.4
2019-May-24 14:35 186 7 gusting 13 24.4
2019-May-24 14:30 187 8 gusting 13 24.4
2019-May-24 14:25 192 6 gusting 13 24.4
2019-May-24 14:20 190 10 gusting 13 24.4
2019-May-24 14:15 193 6 gusting 12 24.4
2019-May-24 14:10 213 6 gusting 12 24.4
2019-May-24 14:05 219 6 gusting 9 25.6
2019-May-24 14:00 177 6 gusting 9 25.6
2019-May-24 13:55 180 5 gusting 9 24.4
2019-May-24 13:50 199 7 gusting 10 24.4
2019-May-24 13:45 203 0 gusting 10 25.6
2019-May-24 13:40 224 3 gusting 10 25.6
2019-May-24 13:35 223 4 gusting 10 24.4
2019-May-24 13:30 215 3 gusting 13 24.4
2019-May-24 13:25 238 5 gusting 13 24.4
2019-May-24 13:20 243 10 gusting 12 24.4
2019-May-24 13:15 227 8 gusting 12 24.4
2019-May-24 13:10 221 9 gusting 12 24.4
2019-May-24 13:05 228 6 gusting 13 24.4
2019-May-24 13:00 246 3 gusting 13 24.4
2019-May-24 12:55 250 6 gusting 12 24.4
2019-May-24 12:50 255 6 gusting 12 24.4
2019-May-24 12:45 269 8 gusting 10 24.4
2019-May-24 12:40 273 5 gusting 10 24.4
2019-May-24 12:35 268 6 gusting 12 24.4
2019-May-24 12:30 247 5 gusting 12 24.4
2019-May-24 12:25 255 6 gusting 13 24.4
2019-May-24 12:20 230 5 gusting 13 24.4
2019-May-24 12:15 214 5 gusting 13 23.9
2019-May-24 12:10 227 8 gusting 12 24.4
2019-May-24 12:05 219 5 gusting 10 24.4
2019-May-24 12:00 208 5 gusting 12 24.4
2019-May-24 11:55 211 6 gusting 12 24.4
2019-May-24 11:50 235 4 gusting 9 24.4
2019-May-24 11:45 243 5 gusting 9 24.4
2019-May-24 11:40 208 5 gusting 10 24.4
2019-May-24 11:35 196 6 gusting 10 24.4
2019-May-24 11:30 209 6 gusting 10 23.9
2019-May-24 11:25 225 6 gusting 13 23.9
2019-May-24 11:20 231 4 gusting 13 23.9
2019-May-24 11:15 234 4 gusting 13 24.4
2019-May-24 11:10 239 7 gusting 13 23.9
2019-May-24 11:05 233 9 gusting 13 24.4
2019-May-24 11:00 232 5 gusting 10 24.4
2019-May-24 10:55 230 3 gusting 12 24.4
2019-May-24 10:50 226 5 gusting 12 24.4
2019-May-24 10:45 244 6 gusting 10 24.4
2019-May-24 10:40 235 4 gusting 9 24.4
2019-May-24 10:35 216 5 gusting 8 24.4
2019-May-24 10:30 254 3 gusting 8 24.4
2019-May-24 10:25 271 4 gusting 12 23.9
2019-May-24 10:20 270 5 gusting 12 23.9
2019-May-24 10:15 236 8 gusting 12 24.4
2019-May-24 10:10 221 2 gusting 6 23.9
2019-May-24 10:05 221 5 gusting 7 23.9
2019-May-24 10:00 223 5 gusting 7 23.9
2019-May-24 09:55 257 4 gusting 8 23.9
2019-May-24 09:50 272 5 gusting 8 23.9
2019-May-24 09:45 265 6 gusting 7 23.9
2019-May-24 09:40 258 2 gusting 6 23.9
2019-May-24 09:35 271 5 gusting 8 23.9
2019-May-24 09:30 264 2 gusting 9 23.3
2019-May-24 09:25 239 4 gusting 9 23.3
2019-May-24 09:20 248 4 gusting 7 23.9
2019-May-24 09:15 266 2 gusting 6 23.9
2019-May-24 09:10 246 5 gusting 6 23.9
2019-May-24 09:05 253 2 gusting 6 23.9
2019-May-24 09:00 281 0 gusting 6 24.4
2019-May-24 08:55 292 1 gusting 6 24.4
2019-May-24 08:50 24.4
2019-May-24 08:45 247 0 gusting 4 23.9
2019-May-24 08:40 22.8
2019-May-24 08:35 271 2 gusting 6 23.9
2019-May-24 08:30 262 3 gusting 6 23.3
2019-May-24 08:25 298 4 gusting 6 24.4
2019-May-24 08:20 007 0 gusting 5 24.4
2019-May-24 08:15 348 0 gusting 5 22.8
2019-May-24 08:10 066 3 gusting 5 22.8
2019-May-24 08:05 068 0 gusting 4 23.3
2019-May-24 08:00 054 0 gusting 4 23.3
2019-May-24 07:55 044 2 gusting 6 22.2
2019-May-24 07:50 029 4 gusting 6 22.2
2019-May-24 07:45 021 4 gusting 6 22.2
2019-May-24 07:40 343 3 gusting 6 22.2
2019-May-24 07:35 21.7
2019-May-24 07:30 016 1 gusting 7 21.7
2019-May-24 07:25 360 4 gusting 8 21.1
2019-May-24 07:20 323 5 gusting 8 21.1
2019-May-24 07:15 333 4 gusting 6 21.1
2019-May-24 07:10 338 2 gusting 6 21.1
2019-May-24 07:05 307 1 gusting 5 21.1
2019-May-24 07:00 315 1 gusting 5 21.1
2019-May-24 06:55 312 1 gusting 5 20.6
2019-May-24 06:50 300 3 gusting 6 20.6
2019-May-24 06:45 298 1 gusting 6 20.6
2019-May-24 06:40 293 0 gusting 4 20.0
2019-May-24 06:35 293 0 gusting 5 20.0
2019-May-24 06:30 254 1 gusting 5 19.4
2019-May-24 06:25 259 2 gusting 4 19.4
2019-May-24 06:20 286 1 gusting 4 19.4
2019-May-24 06:15 300 2 gusting 4 19.4
2019-May-24 06:10 313 1 gusting 4 19.4
2019-May-24 06:05 306 2 gusting 4 19.4
2019-May-24 06:00 300 2 gusting 4 19.4
2019-May-24 05:55 310 1 gusting 5 19.4
2019-May-24 05:50 290 1 gusting 5 18.9
2019-May-24 05:45 268 1 gusting 5 18.9
2019-May-24 05:40 283 2 gusting 5 18.9
2019-May-24 05:35 328 2 gusting 5 19.4
2019-May-24 05:30 029 1 gusting 5 19.4
2019-May-24 05:25 069 0 gusting 5 19.4
2019-May-24 05:20 104 0 gusting 5 19.4
2019-May-24 05:15 075 1 gusting 9 19.4
2019-May-24 05:10 078 6 gusting 9 20.0
2019-May-24 05:05 160 0 gusting 2 20.0
2019-May-24 05:00 20.6
2019-May-24 04:55 20.0
2019-May-24 04:50 19.4
2019-May-24 04:45 17.8
2019-May-24 04:40 16.7
2019-May-24 04:35 16.7
2019-May-24 04:30 049 0 gusting 2 16.1
2019-May-24 04:25 035 0 gusting 2 15.6
2019-May-24 04:20 022 0 gusting 2 15.0
2019-May-24 04:15 012 0 gusting 3 15.0
2019-May-24 04:10 360 1 gusting 3 14.4
2019-May-24 04:05 13.9
2019-May-24 04:00 13.9
2019-May-24 03:55 019 0 gusting 4 13.9
2019-May-24 03:50 339 0 gusting 2 13.9
2019-May-24 03:45 302 0 gusting 3 13.9
2019-May-24 03:40 266 0 gusting 4 13.9
2019-May-24 03:35 267 1 gusting 4 14.4
2019-May-24 03:30 110 1 gusting 3 14.4
2019-May-24 03:25 14.4
2019-May-24 03:20 126 2 gusting 4 13.9
2019-May-24 03:15 107 2 gusting 5 13.9
2019-May-24 03:10 051 2 gusting 5 13.9
2019-May-24 03:05 340 1 gusting 5 14.4
2019-May-24 03:00 327 2 gusting 4 13.9
2019-May-24 02:55 343 1 gusting 4 13.9
2019-May-24 02:50 321 0 gusting 4 13.9
2019-May-24 02:45 031 2 gusting 3 13.9
2019-May-24 02:40 069 0 gusting 3 13.9
2019-May-24 02:35 002 1 gusting 3 14.4
2019-May-24 02:30 14.4
2019-May-24 02:25 309 2 gusting 3 14.4
2019-May-24 02:20 168 0 gusting 2 14.4
2019-May-24 02:15 174 1 gusting 2 14.4
2019-May-24 02:10 176 0 gusting 2 14.4
2019-May-24 02:05 188 1 gusting 3 14.4
2019-May-24 02:00 133 1 gusting 3 14.4
2019-May-24 01:55 14.4
2019-May-24 01:50 068 2 gusting 5 14.4
2019-May-24 01:45 072 2 gusting 5 14.4
2019-May-24 01:40 092 2 gusting 6 14.4
2019-May-24 01:35 100 3 gusting 6 14.4
2019-May-24 01:30 104 1 gusting 6 14.4
2019-May-24 01:25 098 2 gusting 7 14.4
2019-May-24 01:20 081 5 gusting 7 14.4
2019-May-24 01:15 048 2 gusting 8 15.0
2019-May-24 01:10 081 0 gusting 12 15.0
2019-May-24 01:05 090 4 gusting 15 15.0
2019-May-24 01:00 090 6 gusting 15 15.0
2019-May-24 00:55 078 7 gusting 14 15.0
2019-May-24 00:50 059 8 gusting 14 15.6
2019-May-24 00:45 062 10 gusting 14 15.6
2019-May-24 00:40 072 6 gusting 12 16.1
2019-May-24 00:35 071 6 gusting 12 15.6
2019-May-24 00:30 075 6 gusting 12 15.0
2019-May-24 00:25 084 7 gusting 12 14.4
2019-May-24 00:20 073 3 gusting 6 14.4
2019-May-24 00:15 14.4
2019-May-24 00:10 14.4
2019-May-24 00:05 13.9
2019-May-24 00:00 13.9
2019-May-23 23:55 013 0 gusting 3 13.9
2019-May-23 23:50 13.9
2019-May-23 23:45 13.9
2019-May-23 23:40 066 0 gusting 3 13.9
2019-May-23 23:35 023 1 gusting 3 13.9
2019-May-23 23:30 343 1 gusting 2 13.9
2019-May-23 23:25 339 0 gusting 3 13.9
2019-May-23 23:20 029 0 gusting 4 13.9
2019-May-23 23:15 042 1 gusting 4 13.9
2019-May-23 23:10 040 1 gusting 3 13.9
2019-May-23 23:05 061 0 gusting 2 13.9
2019-May-23 23:00 13.9
2019-May-23 22:55 073 1 gusting 3 13.9
2019-May-23 22:50 045 0 gusting 3 13.9
2019-May-23 22:45 030 1 gusting 3 13.9
2019-May-23 22:40 13.9
2019-May-23 22:35 13.9
2019-May-23 22:30 13.9
2019-May-23 22:25 041 0 gusting 3 13.9
2019-May-23 22:20 026 1 gusting 3 13.9
2019-May-23 22:15 020 1 gusting 3 13.9
2019-May-23 22:10 042 1 gusting 2 13.9
2019-May-23 22:05 065 1 gusting 2 13.9
2019-May-23 22:00 104 1 gusting 2 13.9
2019-May-23 21:55 099 0 gusting 3 13.9
2019-May-23 21:50 14.4
2019-May-23 21:45 090 1 gusting 3 14.4
2019-May-23 21:40 14.4
2019-May-23 21:35 074 0 gusting 3 14.4
2019-May-23 21:30 054 1 gusting 2 14.4
2019-May-23 21:25 14.4
2019-May-23 21:20 084 1 gusting 3 15.0
2019-May-23 21:15 083 1 gusting 3 15.0
2019-May-23 21:10 082 1 gusting 2 15.0
2019-May-23 21:05 093 0 gusting 3 15.0
2019-May-23 21:00 090 0 gusting 5 15.0
2019-May-23 20:55 080 2 gusting 5 15.0
2019-May-23 20:50 067 3 gusting 4 15.0
2019-May-23 20:45 15.0
2019-May-23 20:40 089 1 gusting 3 15.0
2019-May-23 20:35 074 2 gusting 3 15.0
2019-May-23 20:30 052 1 gusting 4 15.6
2019-May-23 20:25 045 2 gusting 4 15.6
2019-May-23 20:20 047 2 gusting 3 15.6
2019-May-23 20:15 069 2 gusting 3 15.6
2019-May-23 20:10 15.6
2019-May-23 20:05 080 1 gusting 3 15.6
2019-May-23 20:00 080 1 gusting 3 15.6
2019-May-23 19:55 089 1 gusting 2 15.6
2019-May-23 19:50 079 1 gusting 2 16.1
2019-May-23 19:45 079 1 gusting 3 16.1
2019-May-23 19:40 090 1 gusting 3 16.1
2019-May-23 19:35 077 2 gusting 3 16.7
2019-May-23 19:30 291 0 gusting 2 16.7
2019-May-23 19:25 002 0 gusting 2 16.7
2019-May-23 19:20 056 0 gusting 2 16.7
2019-May-23 19:15 110 1 gusting 2 17.2
2019-May-23 19:10 095 0 gusting 3 17.2
2019-May-23 19:05 090 0 gusting 3 17.2
2019-May-23 19:00 090 1 gusting 2 17.8